PHBAS EHRD-EHRD

Flight info

Callsign PHBAS
Flight time 0h 37m
Altitude 6000
Route REQUEST HOTEL DEP AND ARR
Aircraft SR22/L-SDGRY/S

Departure

Time 2026-04-27 14:39
Airport Rotterdam The Hague Airport (EHRD)

Arrival

Time 2026-04-27 15:17
Airport Rotterdam The Hague Airport (EHRD)
Time Latitude Longitude Altitude Speed Heading
2026-04-27 14:25 51.94962 4.42690 -12 ft 0 kts 146°
2026-04-27 14:35 51.94961 4.42690 -12 ft 0 kts 146°
2026-04-27 14:36 51.94975 4.42719 -12 ft 7 kts 18°
2026-04-27 14:36 51.95008 4.42785 -12 ft 8 kts 56°
2026-04-27 14:36 51.95043 4.42873 -12 ft 9 kts 57°
2026-04-27 14:36 51.95081 4.42971 -12 ft 10 kts 61°
2026-04-27 14:37 51.95113 4.43048 -12 ft 11 kts 52°
2026-04-27 14:37 51.95168 4.43105 -12 ft 9 kts 337°
2026-04-27 14:37 51.95185 4.43099 -12 ft 0 kts 355°
2026-04-27 14:38 51.95190 4.43099 -12 ft 0 kts 358°
2026-04-27 14:38 51.95191 4.43099 -12 ft 3 kts 358°
2026-04-27 14:38 51.95315 4.43137 -12 ft 25 kts 42°
2026-04-27 14:39 51.95517 4.43588 -13 ft 77 kts 51°
2026-04-27 14:39 51.95847 4.44474 241 ft 90 kts 57°
2026-04-27 14:39 51.96227 4.45320 526 ft 92 kts 30°
2026-04-27 14:39 51.96880 4.45234 795 ft 99 kts 340°
2026-04-27 14:40 51.97480 4.44634 1023 ft 111 kts 299°
2026-04-27 14:40 51.97510 4.43271 1148 ft 126 kts 254°
2026-04-27 14:40 51.97088 4.42000 1215 ft 139 kts 236°
2026-04-27 14:40 51.96520 4.40551 1113 ft 149 kts 244°
2026-04-27 14:41 51.96425 4.38873 944 ft 148 kts 282°
2026-04-27 14:41 51.96659 4.37340 1070 ft 129 kts 280°
2026-04-27 14:41 51.96551 4.35944 1225 ft 122 kts 258°
2026-04-27 14:41 51.96349 4.34535 1167 ft 132 kts 259°
2026-04-27 14:42 51.96443 4.32979 953 ft 141 kts 281°
2026-04-27 14:42 51.96476 4.31378 848 ft 135 kts 274°
2026-04-27 14:42 51.96484 4.29919 926 ft 124 kts 267°
2026-04-27 14:42 51.96377 4.28561 940 ft 125 kts 269°
2026-04-27 14:43 51.96333 4.27175 1001 ft 119 kts 273°
2026-04-27 14:43 51.96289 4.25820 995 ft 123 kts 265°
2026-04-27 14:43 51.96234 4.24372 841 ft 133 kts 274°
2026-04-27 14:43 51.96366 4.22915 827 ft 129 kts 281°
2026-04-27 14:44 51.96500 4.21524 928 ft 118 kts 285°
2026-04-27 14:44 51.96683 4.20198 992 ft 116 kts 284°
2026-04-27 14:44 51.96692 4.18872 1039 ft 118 kts 270°
2026-04-27 14:44 51.96666 4.17468 969 ft 126 kts 270°
2026-04-27 14:45 51.96637 4.16013 887 ft 130 kts 270°
2026-04-27 14:45 51.96603 4.14535 869 ft 128 kts 270°
2026-04-27 14:45 51.96562 4.13093 862 ft 126 kts 270°
2026-04-27 14:45 51.96530 4.11604 767 ft 139 kts 271°
2026-04-27 14:46 51.96493 4.10040 864 ft 138 kts 271°
2026-04-27 14:46 51.96449 4.08444 870 ft 143 kts 271°
2026-04-27 14:46 51.96399 4.06819 867 ft 147 kts 268°
2026-04-27 14:46 51.95937 4.05319 860 ft 154 kts 224°
2026-04-27 14:47 51.94959 4.04653 868 ft 154 kts 187°
2026-04-27 14:47 51.93888 4.04421 869 ft 156 kts 188°
2026-04-27 14:47 51.92797 4.04120 866 ft 157 kts 189°
2026-04-27 14:47 51.91718 4.03775 865 ft 157 kts 193°
2026-04-27 14:48 51.90643 4.03368 867 ft 157 kts 191°
2026-04-27 14:48 51.88584 4.02105 882 ft 164 kts 210°
2026-04-27 14:48 51.87560 4.01178 889 ft 173 kts 210°
2026-04-27 14:49 51.86504 4.00149 887 ft 181 kts 217°
2026-04-27 14:49 51.85593 3.98672 886 ft 186 kts 226°
2026-04-27 14:49 51.84714 3.97046 879 ft 189 kts 239°
2026-04-27 14:49 51.84086 3.95143 881 ft 190 kts 243°
2026-04-27 14:50 51.83453 3.93246 881 ft 191 kts 245°
2026-04-27 14:50 51.82949 3.91224 884 ft 191 kts 251°
2026-04-27 14:50 51.82471 3.89216 881 ft 191 kts 251°
2026-04-27 14:50 51.82008 3.87201 881 ft 191 kts 252°
2026-04-27 14:51 51.81566 3.85148 879 ft 191 kts 253°
2026-04-27 14:51 51.81153 3.83090 878 ft 191 kts 255°
2026-04-27 14:51 51.80770 3.81039 880 ft 191 kts 256°
2026-04-27 14:51 51.80524 3.79631 883 ft 191 kts 257°
2026-04-27 14:52 51.79779 3.77060 866 ft 193 kts 226°
2026-04-27 14:52 51.78811 3.75558 864 ft 194 kts 209°
2026-04-27 14:52 51.77572 3.74729 886 ft 192 kts 201°
2026-04-27 14:52 51.76321 3.73934 877 ft 187 kts 205°
2026-04-27 14:53 51.75182 3.73018 872 ft 177 kts 207°
2026-04-27 14:53 51.74097 3.72096 872 ft 171 kts 208°
2026-04-27 14:53 51.73073 3.71188 874 ft 166 kts 210°
2026-04-27 14:53 51.72071 3.70263 876 ft 163 kts 211°
2026-04-27 14:54 51.71131 3.69190 878 ft 161 kts 215°
2026-04-27 14:54 51.70191 3.68216 874 ft 161 kts 210°
2026-04-27 14:54 51.69347 3.67054 866 ft 159 kts 239°
2026-04-27 14:54 51.68870 3.65474 869 ft 156 kts 260°
2026-04-27 14:55 51.69001 3.63797 866 ft 151 kts 291°
2026-04-27 14:55 51.69329 3.62181 863 ft 150 kts 303°
2026-04-27 14:55 51.70121 3.61257 951 ft 136 kts 353°
2026-04-27 14:55 51.70974 3.61563 1092 ft 124 kts 38°
2026-04-27 14:56 51.71543 3.62582 1242 ft 119 kts 52°
2026-04-27 14:56 51.72029 3.63636 1356 ft 117 kts 53°
2026-04-27 14:56 51.72522 3.64726 1376 ft 123 kts 53°
2026-04-27 14:56 51.73041 3.65879 1378 ft 129 kts 53°
2026-04-27 14:57 51.73578 3.67074 1379 ft 133 kts 53°
2026-04-27 14:57 51.74131 3.68306 1378 ft 135 kts 53°
2026-04-27 14:57 51.74688 3.69542 1381 ft 137 kts 53°
2026-04-27 14:57 51.75252 3.70799 1384 ft 138 kts 53°
2026-04-27 14:58 51.75819 3.72064 1382 ft 139 kts 53°
2026-04-27 14:58 51.76383 3.73318 1379 ft 139 kts 53°
2026-04-27 14:58 51.76957 3.74589 1379 ft 139 kts 53°
2026-04-27 14:58 51.77531 3.75858 1382 ft 139 kts 53°
2026-04-27 14:59 51.78104 3.77120 1384 ft 139 kts 53°
2026-04-27 14:59 51.78679 3.78383 1385 ft 139 kts 53°
2026-04-27 14:59 51.79250 3.79637 1383 ft 139 kts 53°
2026-04-27 14:59 51.79831 3.80909 1381 ft 140 kts 52°
2026-04-27 15:00 51.80473 3.82095 1379 ft 140 kts 47°
2026-04-27 15:00 51.80672 3.82445 1378 ft 140 kts 47°
2026-04-27 15:00 51.81060 3.83129 1378 ft 140 kts 47°
2026-04-27 15:00 51.81723 3.84300 1377 ft 140 kts 47°
2026-04-27 15:01 51.82377 3.85459 1378 ft 140 kts 47°
2026-04-27 15:01 51.83041 3.86639 1377 ft 140 kts 47°
2026-04-27 15:01 51.83692 3.87795 1379 ft 140 kts 47°
2026-04-27 15:01 51.84262 3.88803 1381 ft 140 kts 47°
2026-04-27 15:02 51.84723 3.89617 1382 ft 140 kts 47°
2026-04-27 15:02 51.85385 3.90787 1349 ft 142 kts 47°
2026-04-27 15:02 51.85801 3.91524 1337 ft 142 kts 47°
2026-04-27 15:02 51.86446 3.92660 1454 ft 134 kts 47°
2026-04-27 15:03 51.87090 3.93785 1471 ft 135 kts 47°
2026-04-27 15:03 51.87730 3.94900 1468 ft 132 kts 47°
2026-04-27 15:03 51.88336 3.95943 1463 ft 122 kts 47°
2026-04-27 15:03 51.88903 3.96917 1463 ft 114 kts 47°
2026-04-27 15:04 51.89434 3.97829 1462 ft 107 kts 47°
2026-04-27 15:04 51.89932 3.98684 1447 ft 103 kts 47°
2026-04-27 15:04 51.90395 3.99533 1402 ft 102 kts 45°
2026-04-27 15:04 51.90933 4.00316 1358 ft 100 kts 46°
2026-04-27 15:05 51.91402 4.01121 1387 ft 96 kts 46°
2026-04-27 15:05 51.91870 4.01938 1464 ft 102 kts 47°
2026-04-27 15:05 51.92371 4.02811 1476 ft 111 kts 47°
2026-04-27 15:05 51.92923 4.03768 1475 ft 119 kts 47°
2026-04-27 15:06 51.93505 4.04777 1474 ft 125 kts 47°
2026-04-27 15:06 51.94112 4.05826 1471 ft 129 kts 47°
2026-04-27 15:06 51.94740 4.06913 1470 ft 131 kts 47°
2026-04-27 15:06 51.95365 4.07996 1470 ft 133 kts 47°
2026-04-27 15:07 51.95974 4.09138 1466 ft 134 kts 60°
2026-04-27 15:07 51.96287 4.10576 1473 ft 134 kts 72°
2026-04-27 15:07 51.96537 4.12028 1470 ft 132 kts 73°
2026-04-27 15:07 51.96673 4.13471 1458 ft 125 kts 89°
2026-04-27 15:08 51.96645 4.14851 1456 ft 118 kts 89°
2026-04-27 15:08 51.96618 4.16142 1454 ft 112 kts 88°
2026-04-27 15:08 51.96613 4.17396 1460 ft 108 kts 87°
2026-04-27 15:08 51.96613 4.18597 1469 ft 102 kts 87°
2026-04-27 15:09 51.96605 4.19691 1499 ft 102 kts 88°
2026-04-27 15:09 51.96602 4.20881 1474 ft 106 kts 87°
2026-04-27 15:09 51.96602 4.22084 1467 ft 106 kts 88°
2026-04-27 15:09 51.96606 4.23295 1471 ft 106 kts 87°
2026-04-27 15:10 51.96612 4.24465 1465 ft 102 kts 88°
2026-04-27 15:10 51.96618 4.25504 1436 ft 103 kts 87°
2026-04-27 15:10 51.96620 4.26804 1311 ft 109 kts 87°
2026-04-27 15:10 51.96629 4.28047 1178 ft 107 kts 86°
2026-04-27 15:11 51.96629 4.29252 1046 ft 106 kts 86°
2026-04-27 15:11 51.96626 4.30456 965 ft 101 kts 87°
2026-04-27 15:11 51.96625 4.31545 945 ft 93 kts 87°
2026-04-27 15:11 51.96608 4.32567 950 ft 85 kts 86°
2026-04-27 15:12 51.96594 4.33493 957 ft 78 kts 86°
2026-04-27 15:12 51.96583 4.34404 1019 ft 86 kts 86°
2026-04-27 15:12 51.96570 4.35473 998 ft 99 kts 88°
2026-04-27 15:12 51.96564 4.36633 976 ft 102 kts 86°
2026-04-27 15:13 51.96561 4.37789 969 ft 103 kts 86°
2026-04-27 15:13 51.96554 4.38952 966 ft 102 kts 87°
2026-04-27 15:13 51.96549 4.40124 966 ft 102 kts 88°
2026-04-27 15:13 51.96167 4.40425 950 ft 114 kts 238°
2026-04-27 15:14 51.95962 4.39147 966 ft 111 kts 260°
2026-04-27 15:14 51.95749 4.37935 1051 ft 107 kts 256°
2026-04-27 15:14 51.95494 4.36795 1089 ft 106 kts 241°
2026-04-27 15:14 51.95191 4.35705 1130 ft 106 kts 249°
2026-04-27 15:15 51.94635 4.34881 1122 ft 108 kts 198°
2026-04-27 15:15 51.93976 4.35134 1058 ft 107 kts 120°
2026-04-27 15:15 51.93570 4.36140 1048 ft 104 kts 120°
2026-04-27 15:15 51.93612 4.37153 1028 ft 100 kts 65°
2026-04-27 15:16 51.93705 4.38255 992 ft 98 kts 70°
2026-04-27 15:16 51.93975 4.39320 787 ft 105 kts 66°
2026-04-27 15:16 51.94273 4.40368 605 ft 98 kts 70°
2026-04-27 15:16 51.94585 4.41325 374 ft 92 kts 50°
2026-04-27 15:17 51.94929 4.42152 161 ft 88 kts 55°
2026-04-27 15:17 51.95246 4.42907 24 ft 71 kts 59°
2026-04-27 15:17 51.95474 4.43493 -12 ft 36 kts 60°
2026-04-27 15:17 51.95478 4.43584 -13 ft 9 kts 182°
2026-04-27 15:18 51.95408 4.43520 -12 ft 12 kts 215°
2026-04-27 15:18 51.95345 4.43449 -12 ft 8 kts 216°
2026-04-27 15:18 51.95287 4.43403 -12 ft 10 kts 189°
2026-04-27 15:18 51.95232 4.43365 -12 ft 8 kts 229°
2026-04-27 15:19 51.95191 4.43272 -12 ft 10 kts 238°
2026-04-27 15:19 51.95152 4.43166 -12 ft 11 kts 245°
2026-04-27 15:19 51.95112 4.43049 -12 ft 12 kts 233°
2026-04-27 15:19 51.95068 4.42935 -12 ft 11 kts 238°
2026-04-27 15:20 51.95028 4.42839 -12 ft 9 kts 238°
2026-04-27 15:20 51.94999 4.42760 -12 ft 8 kts 239°
2026-04-27 15:20 51.94952 4.42703 -12 ft 7 kts 247°
2026-04-27 15:20 51.94953 4.42661 -12 ft 3 kts 243°
2026-04-27 15:21 51.94947 4.42658 -12 ft 0 kts 150°